星链-5652 (STARLINK-5652 )

导读

STARLINK-5652是美国太空探索技术公司(SpaceX)星链互联网卫星星座的一员,于2023年1月26日发射入轨。星链项目旨在通过近地轨道卫星群,为全球提供高速宽带互联网服务,该卫星的入轨进一步扩充了星链星座的网络覆盖容量与服务能力。

Basic Information
目录编号:
55334
目录名称:
STARLINK-5652
国际标识:
2023-013D
轨道中心:
EARTH
卫星名称:
星链-5652
卫星全名:
星链-5652 (STARLINK-5652 )
卫星状态:
在轨 (已飞行1325 天)
发射日期:
2023-01-26 UTC
国别 :
美国 (US)
星等 :
--
This satellite is enrolled in the Space Conjunction Data Service (SCDS) and the current flight risk assessment level is: No High Risk
Orbit Information
数据来源 国际轨道数据 AOE轨道数据
星历时间 2026-09-11T22:16:41+0800
1天前
查看轨道信息
2026-09-11T07:00:00+0800
1天前
查看轨道信息
半长轴 6861.209km 6861.17km
偏心率 0.0001102 0.0001315
轨道倾角 43.004° 43.003°
近地点辐角 263.178° 252.246°
升交点赤经 333.553° 337.151°
平近点角 96.895° 203.002°
近地点 482.315km 482.13km
远地点 483.829km 483.936km
周期 94.267分钟 94.266分钟
每日圈数 15.275724 15.275856
Detailed Information
固有亮度:
5
最大亮度:
2.5
卫星平台:
Starlink v1.5
覆盖范围:
全球
运营商:
太空探索技术公司
运营商所在国:
美国
制造商(研发单位):
太空探索技术公司
制造商所在国:
美国
使用方式:
暂无
Satellite Introduction
星链(Starlink)计划是由太空探索技术公司(SpaceX)提出的一个巨型低轨卫星互联网星座项目,计划在2019年至2024年间在太空搭建由约1.2万颗卫星组成的“星链”网络,其中1584颗将部署在地球上空550千米处的近地轨道,并从2020年开始工作。该卫星仍在工作。
2D Orbit Map
3D Orbit Map
Orbit Altitude Analysis Chart
Orbit Inclination Analysis Chart
Orbit Comprehensive Analysis Chart
View Comprehensive Chart
Conjunction Data List
Event ID Objects TCA Miss Dist (km) Collision Risk Probability Collision Risk Index (CRI) Action
CDM_260913-051004-283905-533422
2026-09-13T
05:10:00+0000
1.702 km
极远距离
4.022339E-6 低风险 0.47
Miss Distance Evolution Trend with All Objects
Collision Probability Evolution Trend with All Objects